Location: Unspecified
(0.0000°N, 0.0000°E)
Time: 10:57:59
(UTC+00:00)

Hubble Space Telescope - Visible Passes

Search period start: 21 October 2019 00:00
Search period end: 31 October 2019 00:00
Orbit: 536 x 540 km, 28.5° (Epoch: 20 October)

Date Brightness Start Highest point End Pass type
(mag) Time Alt. Az. Time Alt. Az. Time Alt. Az.
21 Oct 2.3 04:21:05 17° SSW 04:23:34 33° SSE 04:27:17 10° E visible
22 Oct 1.6 04:11:56 37° SSW 04:13:01 47° SSE 04:16:59 10° ENE visible
23 Oct 1.1 04:02:49 63° ESE 04:02:49 63° ESE 04:06:33 10° ENE visible
24 Oct 2.2 03:53:40 33° NE 03:53:40 33° NE 03:56:00 10° ENE visible
25 Oct 3.2 03:44:28 16° NE 03:44:28 16° NE 03:45:21 10° NE visible
